"Pseudo-MPEC" for C3XUF92

Created 2020 Nov 27 2:07:12 UT using Find_Orb

Click here for an explanation of pseudo-MPECs

 
 Astrometry: 
     C3XUF92  C2020 08 29.47465 03 35 28.33 +07 36 32.3    ~BI8M 21.6 GVNEOCPG96
     C3XUF92  C2020 08 29.48035 03 35 28.39 +07 36 31.9    ~BI8M 22.1 GVNEOCPG96
     C3XUF92  C2020 08 29.48604 03 35 28.44 +07 36 30.9    ~BI8M 22.0 GVNEOCPG96
     C3XUF92  C2020 08 29.49173 03 35 28.50 +07 36 30.5    ~BI8M 21.4 GVNEOCPG96
     C3XUF92  C2020 09 12#ow:ev/JgMkMqFL:8:El/6x0.!wh0!7ao]X$,rQWr#]fpR1b;!`%F52
     C3XUF92  C2020 09 120a^jv+1RBj3FP+x-WUDCKPTgkV'p@DQ[\AxX'ceISxp]]HD:Wi]]F52
     C3XUF92  C2020 09 12?kJeG,[A*2#f.Uy5Astrometryd8Lb.cE0._Bwv%pgO[i5qd?]A,F52
     C3XUF92  C2020 09 12kv+ZoIsu1[^0FlIhCEmnfv)U2t+^;k)lPayk6dLttLAw:va2c^rJF52
     C3XUF92  C2020 09 19plU..Glw0;QUQ;[%j.g?dd+M!yLl[ZT\T46IekTMYJ5487-VUl]WF51
     C3XUF92  C2020 10 09n\]@NsT\/[jCKredacted;9bqmix'93;+JanD7b'O\/kF16/QPqHF51
     C3XUF92  C2020 10 09w`FXT3M98O!rDy/`Z8wD:hjLn[y0Rbm@!6n:NCoFAo/(OHYMbG=hF51
     C3XUF92  C2020 10 09oxIH.VJp#Mk$c_rk\h7$7F`@H?n1@1S5/W7r3bBj53nRr@CU.43EF51
     C3XUF92  C2020 10 094sf]84HXE!G/X^[EF#55k]A=$L2R_2AXRXJfZ(e[)Nnh/mhg)XX@F51
     C3XUF92  C2020 10 16.33494 03 32 08.79 +06 05 23.0    ~BI8M 21.5 GVNEOCPG96
     C3XUF92  C2020 10 16.34011 03 32 08.63 +06 05 22.8    ~BI8M 21.5 GVNEOCPG96
     C3XUF92  C2020 10 16.34527 03 32 08.58 +06 05 22.3    ~BI8M 21.0 GVNEOCPG96
     C3XUF92  C2020 10 19yOD1JaCEtO#D;]'Zsd/gR4u+=-=^,m\$Im)0jN^?R]4iob($)[v0F52
     C3XUF92  C2020 10 19\5=yM#F0\oWeZH9rAEU05s%Q][7YS!;Bopu;ZWe7BE96=55ME$F$F52
     C3XUF92  C2020 10 190akm@xn6@f+jbJsep0/,(DuUCTUGd2./%)-ts':$rV$BPj^FTH,6F52
     C3XUF92  C2020 10 19l'E65!7y3F.l);fw[Zo7^7g(P37xsMDUsZjtLjarxSUnt1k/k`F)F52
     C3XUF92  C2020 10 24Q42'!IYOv$*I8tCdd^6=lEe@V0O!Ju+!c=]?@nptx@gL=+kBbHAMF52
     C3XUF92  C2020 10 24hx]=yal^bV!yOupClju21!O=l+_TSZ[uXr82Y_pB;LujGkgm6b%GF52
     C3XUF92  C2020 10 24c/d0:#dH^Fwpr6\RO-Nj3I44;!(+=aRZpqDetcg2/d]'Ts3)aM91F52
     C3XUF92  C2020 10 24;(p01gK=Hv4Fac/(OrF2T!,g^fOfZ:'btxL+ewgs744TCp)=pprVF52
     C3XUF92  C2020 11 05.44981 03 24 00.08 +05 23 54.0    ~BI0M 21.9 GVNEOCPG96
     C3XUF92  C2020 11 05.46001 03 23 59.80 +05 23 52.1    ~BI0M       VNEOCPG96
     C3XUF92  C2020 11 05.46512 03 23 59.70 +05 23 51.9    ~BI0M       VNEOCPG96
     C3XUF92 KC2020 11 08]VvfBVZ$rTD9Av/o-C^a@TD\q:,iJDG0vWkPEVN_xJU-tb*XIJ2mF52
     C3XUF92  C2020 11 12a^bm'f7[gXEm2uliI+AN`(HH2K6lsw*5k2!(mi*%4Q8cx[f)V:j^F51
     C3XUF92  C2020 11 12blJB`ik^s)_'1SJp28!$Uy9B]o\'-ysWAkr0\0^9Cx$PHNc;PAp)F51
     C3XUF92  C2020 11 16.34502203 18 56.65 +05 07 22.8    ~BGB7 20.90GVNEOCPG96
     C3XUF92  C2020 11 16.35015503 18 56.49 +05 07 22.5    ~BGB7 20.87GVNEOCPG96
     C3XUF92  C2020 11 16[8f*OmlNA#Ifu4#+r?D;=#F@Q/['*QeejQJsy!ts$:o8=Td7SZTVF52
     C3XUF92  C2020 11 16.35529603 18 56.36 +05 07 22.1    ~BGB7 20.23GVNEOCPG96
     C3XUF92  C2020 11 16.36043203 18 56.20 +05 07 21.5    ~BGB7 20.54GVNEOCPG96
     C3XUF92  C2020 11 16t-i/isa.9+_=$8YYf,]'!vx0`5=@DsFrZi(#cC1NK?,=Re^^He:DF52
     C3XUF92  C2020 11 16=$_-AYQnZ#(I_`2(Kh0vanm'R,PqN4$3uymm'*OPC5cLa+\7my+`F52
     C3XUF92 2C2020 11 16Z7F0.F9wJLrIsyp]F+5n,PSihFBMa?-g'T$X,Q(Z*R4gR?GhgTrAJ04
     C3XUF92 2C2020 11 16w`g?h(u-6b4DhmOx^/(kwIC=pe*$^%!xG@fOM?X=!c@PaX9CI6lmJ04
     C3XUF92 2C2020 11 16-2lupqvoq5H3cgEY+FB%v]]iaLT3B@%=7Q:,o1A=x^_C=Dj_I@B`J04
     C3XUF92 KC2020 11 170GjNUWKv7h3h\s7Gn/ESnCJ8g0;-,!qcIakX?TV_AxAn5icDhpl1711
     C3XUF92 |C2020 11 17@^x*y,7UWTX?E68EH!@B55ex4THZeh?dsrJd'[_T=PlYOnZonW*^H06
     C3XUF92 KC2020 11 17B\rv*,M%ZFx^0Y?(?tEI@%x59m)pRg9h9iMF+K?##0]ClVq7%7pW711
     C3XUF92 |C2020 11 17L0$0VwsykckHBtEj1B\g9MFQD#WT'gclick48e.k0Kq!MQqo1k;!H06
     C3XUF92 |C2020 11 1777CQdC\.9\'QNF9?Vd6WkANaRtV-PmDNxbKZKLtgb!r6!1UWOEhAH06
     C3XUF92  C2020 11 17.36470203 18 28.18 +05 06 09.1    ~BH9q 20.46GVNEOCPI52
     C3XUF92  C2020 11 17.37655303 18 27.82 +05 06 08.2    ~BH9q 20.59GVNEOCPI52
     C3XUF92  C2020 11 17.38561503 18 27.53 +05 06 07.3    ~BH9q 20.52GVNEOCPI52
     C3XUF92  C2020 11 17.39487403 18 27.27 +05 06 06.4    ~BH9q 20.60GVNEOCPI52
     C3XUF92 KC2020 11 17@p\rj8%u_II^etr6l$bGPxHb-Yk,GfLHDb:I]L,88[0N[W,D$]v'N51
     C3XUF92 KC2020 11 17y*`j6.W=%ahteLtk2f]mv2)-rM2UI9.-Syxa0;giVVcA\73n#JT\N51
     C3XUF92 KC2020 11 17Ea/LMO@M]t5[6P#%,3C(oZo=^?3lV2Se^[)4!0Ku6`WLj4,PGOXpN51
     C3XUF92 KC2020 11 17/'gGG!m#3!BL\%:]6?YLYjyI$_y%42uw9bE:=8q+m9WO?q3UhereN51
     C3XUF92 KC2020 11 17jF[IjZrHsKM-7+Q*E\v=gjVx?OI,*9,fbv4xt9K[QMf\FJ'(GDIkL01
     C3XUF92 KC2020 11 17UGd*JK5cWU%./m,],2?79_s_0UA1yjVTk@9okN2#]7el^qPk]I\wL01
     C3XUF92 KC2020 11 18.V6r1X)d9sHZ2=K:P(QAmwZ?MKP-S_=DW(;GXTth`xn(v+#j(]/V711
     C3XUF92 KC2020 11 18be`JsEg=WJsrKQE2o+dc_l9jo]rSl(;2ie+4-HEWuq(Lx'8G2dqn711
     C3XUF92 KC2020 11 18#aaYq-fs+,$s9?J!6,(h3@5yCypkW1/DZ%`GyESW?F^^J9NforVA204
     C3XUF92 1C2020 11 18=CbRB_,lPcW`[Ut`pA9;Nq4tUrDH!TjQ,JsEV?usP5T,0o+.qZ%,246
     C3XUF92 1C2020 11 18.4$-]Y;explanation'wmgH@2X`aRjQ,v;URdJ4CVC24*InEPE8q246
     C3XUF92 1C2020 11 18mY]LsxXc):DtFE8pY[Vmo`=,Fbx=0WT6PSnn\2.[`TZx%mZ_J'Td246
     C3XUF92 1C2020 11 18xqJD4IDp41#(%`nguUuUSTHg:Lon7m@akT0aR7Xf5H'OHJKC%YR(246
     C3XUF92 1C2020 11 18lTI`kpZ-b4=If.[,0qTkFKmKPk*/C205AYOf*0slx7o?EQK0U+I'246
     C3XUF92 KC2020 11 18[:2E]x/r?BG,L1%0h)?Tu4[Q?*YUDk'i/S/QUo$ftvPkdY-]h3Xn204
     C3XUF92 KC2020 11 18dvSCQwhQ%W:X@k35ITdF*U0H,)bwj^Pg5(U@ag4?--w);aOy:=Xb204
     C3XUF92 HC2020 11 20.29477 03 17 06.95 +05 02 56.9    ~BK87 21.0 RoNEOCP691
     C3XUF92 HC2020 11 20.30475 03 17 06.70 +05 02 56.5    ~BK87 21.2 RoNEOCP691
     C3XUF92 HC2020 11 20.31473 03 17 06.34 +05 02 56.0    ~BK87 20.6 RoNEOCP691
     C3XUF92 KC2020 11 26.18657303 14 28.19 +04 58 05.2    ~BQ5M 20.06GVNEOCPI52
     C3XUF92 KC2020 11 26.19603803 14 27.91 +04 58 04.5    ~BQ5M 20.37GVNEOCPI52
     C3XUF92 KC2020 11 26.20550303 14 27.63 +04 58 04.0    ~BQ5M 20.86GVNEOCPI52

Station data:
(204) Schiaparelli Observatory  (N45.867933 E8.770800)  Italy.  Observer L.
   Buzzi. 0.60-m f/4.64 Newtonian + CCD.
(246) Klet Observatory-KLENOT  (N48.863293 E14.288100)  Czech Republic.
   1.06-m KLENOT telescope.
(691) Steward Observatory, Kitt Peak - Spacewatch  (N31.962174 W111.600327)
   US/Arizona.  Observer J. V. Scotti. 0.9-m f/3 reflector + CCD.
(711) McDonald Observatory, Fort Davis  (N30.671481 W104.021500)  US/Texas.
   0.76-m f/3.0 reflector.
(F51) Pan-STARRS 1, Haleakala  (N20.707235 W156.255910)  US/Hawaii.
   Observers N. Primak, A. Schultz, S. Watters, J. Thiel, T. Goggia. Measurer
   PS1 Science Consortium. 1.8-m Ritchey-Chrétien + CCD.
(F52) Pan-STARRS 2, Haleakala  (N20.707384 W156.255910)  US/Hawaii. 1.8-m
   Ritchey-Chrétien + CCD.
(G96) Mt. Lemmon Survey  (N32.442754 W110.788720)  US/Arizona.  Observers T.
   A. Pruyne, B. M. Africano, E. J. Christensen, G. A. Farneth, D. C. Fuls,
   A. R. Gibbs, A. D. Grauer, H. Gröller, J. A. Johnson, R. A. Kowalski, S.
   M. Larson, G. J. Leonard, D. Rankin, R. L. Seaman, F. C. Shelly. 1.5-m
   reflector + 10K CCD.
(H06) RAS Observatory, Mayhill  (N32.903325 W105.528700)  US/New
   Mexico.  Observers E. Guido, G. Sostero, V. Gonano, L. Donato.
(I52) Steward Observatory, Mt. Lemmon Station  (N32.442547 W110.788920)
   US/Arizona.  Observers T. A. Pruyne, B. M. Africano, E. J. Christensen, G.
   A. Farneth, D. C. Fuls, A. R. Gibbs, A. D. Grauer, H. Gröller, J. A.
   Johnson, R. A. Kowalski, S. M. Larson, G. J. Leonard, D. Rankin, R. L.
   Seaman, F. C. Shelly. 1.0-m reflector + CCD.
(J04) ESA Optical Ground Station, Tenerife  (N28.300924 W16.511830)  Canary
   Islands (Spain).  Observer D. Abreu. Measurers M. Micheli, D. Koschny, E.
   Schwab, M. Busch, A. Knöfel. 1.0-m f/4.4 reflector + CCD.
(L01) Višnjan Observatory, Tičan  (N45.290900 E13.749300)  Croatia.
   Observers K. Korlević, E. Pettarin. Measurer E. Pettarin. 1.0-m f/2.9
   reflector + CCD.
(N51) GROWTH India Telescope, IAO, Hanle  (N32.779244 E78.964610)  India.

Orbital elements:  C3XUF92
   Perihelion 2020 Apr 3.397948 +/- 1.03 TT =  9:33:02 (JD 2458942.897948)
Epoch 2020 Nov 26.0 TT = JDT 2459179.5   Ju: 0.8249           AutoNEOCP
M  12.08651389 +/- 0.049            (J2000 ecliptic)
n   0.05108372 +/- 1.44e-5          Peri.  264.69692 +/- 0.10
a   7.19362315 +/- 0.00135          Node   124.26023 +/- 0.0037
e   0.2650067 +/- 0.00025           Incl.   10.79198 +/- 0.00021
P  19.29                   H 13.9   G  0.15   U  5.4  
q 5.28726447 +/- 0.000816    Q 9.09998183 +/- 0.0035
From 71 observations 2020 Aug. 29-Nov. 26; mean residual 0".42
Residuals in arcseconds: 
200829 G96  .35+  .20+    201105 G96  .72-  .21+    201117 I52  .25-  .38-    
200829 G96  .20+  .19+    201105 G96  .66-  .60-    201117 N51  .32-  .58-    
200829 G96  .09-  .42-    201105 G96  .03-  .26-    201117 N51  .39-  .42-    
200829 G96  .23-  .44-    201108 F52  .00   .35+    201117 N51  .35-  .39-    
200912 F52  .46-  .04-    201112 F51  .40+  .30+    201117 N51  .14+  .44+    
200912 F52  .21-  .34-    201112 F51  .14+  .11-    201117 L01  .19-  .31-    
200912 F52  .30+  .05+    201116 G96  .26+  .14-    201117 L01  .08+  .04+    
200912 F52  .02+  .72+    201116 G96  .06+  .06-    201118 711  .25+  .45+    
200919 F51  .22-  .19+    201116 F52  .35+  .24-    201118 711  .18+  .46+    
201009 F51  .75+  .29+    201116 G96  .32+  .07-    201118 204  .10-  .01+    
201009 F51  .29+  .13+    201116 G96  .12+  .29-    201118 246  1.3+  .50+    
201009 F51  .19-  .10+    201116 F52  .12-  .21-    201118 246  .24-  .29+    
201009 F51  .34+  .40+    201116 F52  .62+  .08+    201118 246  1.0+  .25-    
201016 G96  .13-  1.0-    201116 J04  .05-  .09+    201118 246  .81+  .56-    
201016 G96  .92-  .54-    201116 J04  .19-  .14-    201118 246  .22+  .89-    
201016 G96  .07-  .34-    201116 J04  .57+  .33+    201118 204  .56-  .12-    
201019 F52  .02+  .22+    201117 711  .27+  .58-    201118 204  .44-  .24-    
201019 F52  .18+  .39+    201117 H06  .67-  .38+    201120 691  .20-  .38+    
